Terminal Aerodrome Forecast
Issued by NWS

Home | Current Version | Previous Version | Text Only | Print | Product List | Glossary On
Versions: 1 2 3 4 5 6 7 8 9 10 11 12 13 14 15 16 17 18 19 20
000
FTUS46 KEKA 240540
TAFUKI
TAF
KUKI 240540Z 2406/2506 16009KT P6SM VCSH SCT050 OVC080
      TEMPO 2409/2412 16010G15KT P6SM -RA SCT015 BKN030 OVC050
     FM241200 17010G20KT 5SM -RA BR FEW012 BKN020 OVC040
     FM241500 17009KT 4SM RA BR SCT015 OVC025
     FM242300 29006KT P6SM -RA SCT007 OVC015=

USA.gov is the U.S. government's official web portal to all federal, state and local government web resources and services.